SM7GXQ Weather Reports


Display with metric or nautical units.
time (UTC)temp
F
wind
direction
speed
MPH
gust
MPH
rain 1hr
in
rain 24hr
in
rain mn
in
humidity
%
barometer
mb
20211129103002 32 349 14.0 23.0 0.00 0.02 0.00 93 1001.8
20211129101501 33 349 14.0 23.0 0.00 0.02 0.00 93 1001.7
20211129100001 33 10 14.0 23.0 0.00 0.02 0.00 93 1001.7
20211129094501 33 1 15.0 26.0 0.00 0.03 0.00 93 1001.8
20211129093001 33 1 17.0 25.0 0.00 0.03 0.00 94 1001.8
20211129091502 33 16 16.0 25.0 0.00 0.03 0.00 92 1002.0
20211129084502 33 12 16.0 25.0 0.00 0.04 0.00 93 1001.8
20211129083001 33 12 14.0 24.0 0.00 0.04 0.00 92 1001.7
20211129074502 34 6 14.0 22.0 0.00 0.04 0.00 92 1001.6
20211129071502 34 7 16.0 22.0 0.00 0.04 0.00 91 1001.3
20211129070002 35 350 11.0 20.0 0.00 0.04 0.00 91 1001.3
20211129064502 36 15 11.0 17.0 0.00 0.04 0.00 85 1001.3
20211129063002 36 10 7.0 14.0 0.00 0.04 0.00 83 1001.1
20211129061502 35 21 6.0 9.0 0.00 0.04 0.00 82 1000.6
20211129060001 35 21 7.0 8.0 0.00 0.04 0.00 81 1000.6
20211129054502 35 24 4.0 8.0 0.00 0.06 0.00 81 1000.6
20211129053004 35 17 5.0 12.0 0.00 0.07 0.00 81 1000.4
20211129051501 36 52 5.0 12.0 0.00 0.09 0.00 80 1000.4
20211129044502 36 33 6.0 12.0 0.00 0.12 0.00 80 1000.3
20211129041502 37 27 8.0 13.0 0.00 0.12 0.00 79 1000.4
20211129040002 37 35 6.0 12.0 0.00 0.12 0.00 79 1000.3
20211129033002 37 31 7.0 12.0 0.00 0.12 0.00 78 1000.3
20211129031502 37 20 8.0 12.0 0.00 0.12 0.00 77 1000.4
20211129024502 37 41 7.0 13.0 0.00 0.12 0.00 78 1000.4
20211129023002 37 21 6.0 13.0 0.00 0.12 0.00 79 1000.3
20211129021503 36 26 8.0 12.0 0.00 0.12 0.00 80 1000.3
20211129020003 36 26 7.0 12.0 0.00 0.12 0.00 80 1000.2
20211129011502 37 22 6.0 17.0 0.00 0.13 0.00 82 1000.3
20211129004503 37 35 7.0 12.0 0.00 0.14 0.00 83 1000.3
20211129001502 37 41 7.0 12.0 0.00 0.14 0.00 84 1000.6
20211129000004 37 37 9.0 14.0 0.00 0.14 0.00 85 1000.4
20211128234502 37 35 7.0 13.0 0.00 0.15 0.00 86 1000.3
20211128233002 37 55 8.0 14.0 0.00 0.15 0.00 87 1000.3
20211128231501 36 44 5.0 12.0 0.00 0.15 0.00 89 1000.3
20211128224502 36 30 6.0 12.0 0.00 0.15 0.15 90 1000.2
20211128223002 36 43 4.0 8.0 0.01 0.17 0.15 90 1000.2
20211128220002 35 29 3.0 13.0 0.01 0.17 0.15 90 1000.2
20211128214502 36 57 7.0 13.0 0.01 0.17 0.15 88 1000.4
20211128211501 36 51 6.0 13.0 0.00 0.17 0.14 88 1000.4
20211128204502 36 36 5.0 12.0 0.00 0.17 0.14 89 1000.2
20211128203002 36 69 6.0 15.0 0.00 0.17 0.14 89 1000.1
20211128201501 36 61 8.0 16.0 0.00 0.17 0.14 88 999.9
20211128200002 36 41 6.0 12.0 0.00 0.17 0.14 88 999.9
20211128194503 36 58 6.0 10.0 0.00 0.17 0.14 90 1000.0
20211128193003 36 33 7.0 10.0 0.00 0.17 0.14 90 1000.0
20211128190002 36 33 5.0 12.0 0.00 0.17 0.14 90 999.6
20211128184502 36 53 5.0 13.0 0.00 0.17 0.14 89 999.6
20211128183002 37 40 7.0 13.0 0.00 0.19 0.14 88 999.4
20211128181505 37 58 5.0 12.0 0.00 0.20 0.14 89 999.4
20211128180002 37 57 8.0 20.0 0.00 0.20 0.14 89 999.4
20211128174502 37 42 5.0 10.0 0.00 0.20 0.14 87 999.1
20211128173002 37 35 3.0 8.0 0.01 0.20 0.14 88 999.1
20211128171502 37 36 5.0 12.0 0.01 0.20 0.14 87 998.9
20211128170002 37 46 5.0 12.0 0.01 0.20 0.14 85 998.7
20211128164503 38 67 6.0 15.0 0.02 0.20 0.14 84 998.7
20211128163002 37 61 6.0 13.0 0.01 0.20 0.13 87 998.7
20211128161502 37 64 4.0 8.0 0.01 0.22 0.13 89 998.7
20211128160001 37 79 5.0 21.0 0.01 0.27 0.13 88 998.8
20211128154502 38 51 6.0 12.0 0.00 0.34 0.13 83 998.5
20211128153003 38 74 3.0 17.0 0.00 0.36 0.13 82 998.4
20211128151502 38 64 6.0 12.0 0.00 0.37 0.13 81 998.1
20211128150002 38 92 7.0 13.0 0.00 0.40 0.13 81 998.1
20211128144503 39 62 6.0 18.0 0.00 0.40 0.13 81 998.0
20211128143002 39 90 8.0 18.0 0.00 0.40 0.13 82 998.0
20211128141502 39 66 7.0 15.0 0.00 0.40 0.13 83 997.8
20211128140002 39 64 6.0 14.0 0.00 0.40 0.13 83 997.6
20211128133002 39 63 6.0 18.0 0.00 0.41 0.13 83 997.5
20211128124502 39 90 9.0 18.0 0.00 0.43 0.13 84 997.6
20211128123003 40 70 9.0 18.0 0.00 0.43 0.13 85 997.5
20211128121502 39 74 10.0 14.0 0.00 0.44 0.13 87 997.5
20211128120002 39 60 7.0 15.0 0.00 0.44 0.13 89 997.4
20211128114502 38 70 6.0 16.0 0.00 0.44 0.13 90 997.4
20211128113002 39 66 6.0 21.0 0.00 0.44 0.13 88 997.4
20211128111503 39 86 6.0 15.0 0.00 0.45 0.13 89 997.3
20211128110003 39 71 6.0 14.0 0.00 0.45 0.13 89 997.2
20211128104502 39 52 8.0 18.0 0.00 0.45 0.13 88 997.0